This is the latest recevied weather packets stored in our database for station/object K9RCP-20. If no packets are shown the sender has not sent any weather packets the latest 10 day(s).
| Time | Temp. | Humidity | Pressure | Rain* | Wind** | Luminosity | Snow |
|---|---|---|---|---|---|---|---|
| 1778263964 | 14.44° C | 64% | 1019.7 hPa | 0 mm | - | 347 W/m² | - |
| 1778263661 | 15° C | 63% | 1019.4 hPa | 0 mm | - | 308 W/m² | - |
| 1778263358 | 15.56° C | 61% | 1019.5 hPa | 0 mm | - | 858 W/m² | - |
| 1778263054 | 15° C | 63% | 1019.4 hPa | 0 mm | - | 357 W/m² | - |
| 1778262751 | 14.44° C | 62% | 1019.3 hPa | 0 mm | - | 731 W/m² | - |
| 1778262449 | 14.44° C | 63% | 1019.4 hPa | 0 mm | - | 483 W/m² | - |
| 1778261235 | 13.89° C | 68% | 1019.4 hPa | 0 mm | - | 641 W/m² | - |
| 1778260932 | 13.89° C | 68% | 1019.3 hPa | 0 mm | - | 641 W/m² | - |
| 1778260628 | 12.78° C | 70% | 1019.2 hPa | 0 mm | - | 261 W/m² | - |
| 1778260325 | 12.78° C | 70% | 1019.5 hPa | 0 mm | - | 261 W/m² | - |
| 1778260022 | 12.78° C | 72% | 1019.4 hPa | 0 mm | - | 382 W/m² | - |
| 1778259720 | 12.78° C | 73% | 1019.2 hPa | 0 mm | - | 225 W/m² | - |
| 1778259417 | 12.22° C | 74% | 1019.2 hPa | 0 mm | - | 171 W/m² | - |
| 1778259113 | 12.78° C | 73% | 1019 hPa | 0 mm | - | 113 W/m² | - |
| 1778258810 | 12.78° C | 72% | 1018.8 hPa | 0 mm | - | 169 W/m² | - |
| 1778258507 | 12.22° C | 73% | 1019.2 hPa | 0 mm | - | 186 W/m² | - |
| 1778258204 | 12.78° C | 73% | 1018.9 hPa | 0 mm | - | 162 W/m² | - |
| 1778257902 | 12.22° C | 74% | 1018.7 hPa | 0 mm | - | 322 W/m² | - |
| 1778257597 | 12.22° C | 74% | 1018.8 hPa | 0 mm | - | 242 W/m² | - |
| 1778257295 | 12.22° C | 75% | 1018.6 hPa | 0 mm | - | 152 W/m² | - |
| 1778256992 | 12.22° C | 75% | 1018.7 hPa | 0 mm | - | 112 W/m² | - |
| 1778256689 | 12.22° C | 73% | 1018.6 hPa | 0 mm | - | 139 W/m² | - |
| 1778256387 | 12.22° C | 73% | 1018.4 hPa | 0 mm | - | 202 W/m² | - |
| 1778256084 | 12.22° C | 75% | 1018.4 hPa | 0 mm | - | 131 W/m² | - |
| 1778255776 | 12.22° C | 75% | 1018.8 hPa | 0 mm | - | 158 W/m² | - |
* Rain latest hour (hover to see other rain measurements)
** Current wind speed in m/s (hover to see current wind gust speed)